Theta_e
308 309 310 311 311 311 311 310 310 309 310 310 310 310 309 308 308 308 310 311 312 311 311 312 313 314 317 318 319 319 319 320 321 322 322 322 323 325 327 331 332 332 332 333 333 334 334 335 335 334 330 344
305 306 307 308 308 307 307 308 307 307 306 307 307 306 305 305 304 304 306 306 308 308 307 309 309 310 314 315 316 316 317 318 319 319 319 320 320 322 323 325 327 327 328 330 331 332 332 332 332 331 327 341
303 303 304 304 305 305 305 305 305 304 303 303 304 303 302 302 301 301 302 302 303 304 304 304 304 306 310 312 313 313 314 315 316 316 317 318 318 319 320 320 322 323 326 326 328 330 329 328 327 325 329 339
301 300 301 301 302 302 302 302 302 302 301 300 301 301 300 300 299 299 299 300 299 300 301 301 301 304 307 309 309 310 311 312 313 314 315 315 316 317 317 316 316 317 320 323 324 325 325 324 321 332 337 337
299 300 298 298 299 299 299 300 299 299 298 298 298 299 299 298 298 298 298 297 297 298 297 299 300 301 304 305 306 306 308 308 310 311 313 313 313 314 314 312 311 312 314 316 319 321 321 319 329 333 335 337
298 298 297 297 296 297 296 297 297 296 297 296 296 297 297 297 296 295 295 296 297 296 296 296 298 299 301 302 302 303 304 305 306 308 310 310 311 311 310 308 307 309 311 313 314 316 318 323 328 330 332 334
297 295 296 296 296 295 295 295 295 295 295 295 295 296 296 295 295 295 294 294 295 295 295 294 296 297 298 299 299 300 300 301 303 305 306 307 307 307 306 305 306 306 309 310 310 312 318 321 323 326 328 331
296 295 295 295 295 294 294 294 294 294 294 294 294 295 294 293 294 293 293 293 293 293 293 293 294 294 295 295 295 297 296 298 299 302 302 303 304 303 303 303 303 304 306 307 309 312 314 318 319 321 324 327
296 295 295 295 295 294 293 294 293 293 293 294 294 293 293 293 292 292 291 291 291 291 291 292 292 292 292 292 293 295 294 294 296 297 298 299 300 300 301 301 302 303 303 304 306 307 309 311 315 317 321 325
295 294 294 295 295 294 293 293 293 293 293 292 293 292 292 291 291 291 290 291 291 291 291 291 291 291 291 291 291 292 292 293 294 295 296 297 298 298 299 300 301 302 302 303 303 304 306 309 311 316 318 321
294 294 294 295 295 294 294 293 292 292 292 292 292 292 291 290 289 289 289 289 289 289 290 290 290 290 290 290 290 291 291 292 293 294 294 295 296 297 298 299 300 301 302 302 302 303 304 306 308 310 314 317
293 293 294 295 294 294 294 292 292 292 292 292 291 291 290 290 289 288 288 289 289 289 289 289 289 289 289 289 289 290 291 290 291 292 293 294 295 296 297 297 299 300 301 301 302 302 303 304 306 308 309 311
293 293 294 294 293 293 294 292 292 292 292 291 290 290 290 290 289 288 288 288 288 288 288 288 288 288 288 288 289 289 289 289 289 290 292 293 294 295 296 297 298 298 299 300 300 301 301 303 304 305 306 308
293 293 293 294 293 293 293 292 292 292 290 290 290 289 290 289 289 288 287 288 288 288 287 288 288 287 287 287 288 288 287 288 288 289 291 292 293 294 295 296 297 297 298 299 299 300 301 301 302 303 304 305
293 293 292 294 293 292 292 292 292 291 290 290 289 289 290 289 289 289 288 287 287 287 287 287 287 287 287 287 287 287 287 288 288 289 290 291 291 292 293 294 296 296 297 297 298 299 299 300 301 301 302 303
293 292 292 294 292 292 292 292 291 290 290 289 289 289 289 288 288 288 287 287 287 287 286 286 286 286 286 286 286 287 287 287 288 288 289 290 291 292 292 293 294 295 295 296 297 298 298 299 300 300 301 301
292 293 292 293 292 292 293 291 290 289 289 289 289 289 289 288 288 288 287 286 286 286 285 285 285 285 286 286 286 286 286 287 287 288 288 289 289 290 291 292 293 295 295 295 296 297 298 298 299 300 300 300
292 292 293 293 292 292 291 290 289 289 289 289 288 288 288 288 287 288 287 286 286 285 285 285 285 285 285 285 286 286 286 286 287 286 286 286 287 287 288 289 291 292 292 294 295 296 297 298 298 299 299 299
293 293 292 292 291 291 291 290 289 289 289 288 288 288 287 288 287 287 287 286 285 285 285 284 284 284 284 285 285 285 286 286 285 285 285 285 285 286 286 287 288 288 289 290 291 293 295 296 297 297 297 298
292 291 291 291 293 291 291 290 289 288 288 288 288 287 287 287 287 287 286 286 285 284 284 284 284 284 284 284 285 285 285 285 284 284 284 285 285 283 284 285 285 286 287 288 289 291 292 294 295 295 296 296
291 290 290 289 290 290 291 289 288 288 288 288 287 287 287 287 287 287 286 286 285 284 284 284 283 284 284 284 284 284 284 284 284 283 284 284 284 284 283 284 284 286 287 287 288 289 290 292 293 294 294 295
290 290 290 290 290 291 289 289 288 288 288 287 287 286 286 287 287 286 286 285 285 284 284 284 283 283 283 283 283 283 283 283 283 283 283 282 283 283 283 282 283 284 285 287 288 288 290 291 292 293 295 296
291 289 288 288 288 288 287 287 287 287 287 287 286 286 286 287 286 285 285 285 285 284 283 283 283 283 283 283 283 282 282 282 283 283 282 282 282 283 283 282 283 283 284 285 287 288 289 291 292 293 295 295
289 288 288 287 287 286 286 287 286 287 286 286 286 286 286 286 286 285 285 285 284 283 283 283 282 282 283 282 282 281 281 281 281 281 281 281 281 281 281 282 282 283 284 285 285 287 288 290 291 292 294 294
287 287 286 286 285 285 285 285 286 286 286 286 286 286 286 286 285 285 284 284 284 283 282 282 282 282 282 282 282 281 281 281 281 282 281 281 281 280 279 280 282 282 283 282 283 287 288 289 292 292 293 293
288 287 287 286 285 285 285 284 284 284 285 285 286 286 286 285 285 284 284 283 283 283 282 282 281 281 281 281 281 281 282 281 281 281 280 280 279 281 279 279 281 282 283 283 284 283 285 287 290 292 292 292
287 287 287 286 286 285 284 285 284 284 285 285 285 285 284 284 284 284 283 283 283 282 282 281 281 281 281 281 281 280 280 280 280 280 280 279 278 278 279 279 281 281 283 281 282 283 283 283 285 289 291 292
287 287 286 286 285 285 284 284 285 285 285 285 284 284 284 284 284 283 283 283 282 282 282 281 281 281 281 280 281 280 279 279 279 279 279 279 279 278 276 278 278 281 281 280 279 278 284 283 283 281 286 289
288 287 286 285 284 284 283 284 283 283 282 283 283 283 283 283 283 283 282 282 282 281 281 281 281 280 280 280 280 280 279 279 279 279 279 279 278 278 277 276 278 279 280 280 281 280 279 280 281 283 285 286
286 287 285 283 282 281 281 280 280 280 280 281 281 281 282 282 282 281 281 281 281 281 281 280 281 280 280 280 280 280 279 279 279 279 278 279 278 278 278 277 276 276 279 279 280 281 282 282 280 281 283 283
286 284 284 282 282 282 281 280 281 281 282 281 282 282 281 281 281 281 280 281 280 280 280 280 280 280 280 280 279 280 279 278 278 278 279 279 278 278 278 278 275 275 276 278 278 279 280 281 283 284 282 280
Wind_Speed
17 17 18 17 18 17 17 17 18 18 18 18 18 18 18 18 18 18 18 19 19 18 19 19 19 19 19 18 18 19 19 19 19 18 18 18 18 18 18 18 18 18 17 17 16 16 15 13 14 14 11 8
17 16 17 17 17 17 17 17 17 18 18 17 18 18 17 17 17 17 17 18 18 18 19 18 18 19 18 18 18 18 18 18 18 18 18 18 18 18 18 18 18 18 18 18 17 16 16 15 14 13 13 8
10 17 16 17 17 17 17 17 17 17 17 16 16 16 16 15 15 15 16 16 16 17 18 18 17 18 18 18 18 18 18 18 18 18 18 18 19 18 18 18 18 17 17 17 17 17 17 16 14 14 9 8
6 12 15 15 16 16 16 16 16 16 15 13 13 12 13 11 8 9 9 13 12 15 15 16 15 17 17 18 18 18 18 18 18 18 18 18 19 19 19 19 18 16 16 17 17 17 19 17 17 9 6 9
5 7 9 9 12 13 14 14 13 13 12 11 9 10 9 7 7 6 6 8 10 11 12 14 15 16 16 17 17 18 18 18 18 18 19 19 19 19 19 19 17 14 15 16 17 18 17 16 10 8 8 8
3 4 7 6 6 7 8 9 8 7 7 7 6 8 6 6 7 7 7 8 10 8 11 10 15 15 16 17 17 17 17 18 18 18 18 18 19 19 18 18 10 10 12 14 16 16 14 10 8 9 9 8
3 4 4 5 5 5 7 6 7 5 6 6 6 6 5 6 6 6 6 7 8 8 11 10 13 14 14 15 16 16 16 15 16 17 18 18 18 17 17 10 9 9 9 10 14 12 9 8 8 9 10 10
3 3 4 4 4 4 4 4 4 5 5 5 6 6 6 6 6 6 5 7 9 8 7 7 10 12 12 12 12 15 10 12 12 16 14 15 17 12 8 8 8 9 8 9 9 9 8 8 9 10 9 9
4 3 3 4 4 5 4 5 5 5 6 6 7 7 6 6 6 5 6 6 6 6 6 6 6 7 7 7 8 12 8 8 8 9 9 8 9 8 9 9 9 9 9 9 9 9 9 9 9 9 9 8
3 3 3 4 4 4 4 4 5 5 6 7 8 7 8 7 7 7 7 7 7 7 7 7 7 7 7 7 7 8 7 8 8 8 8 8 8 8 8 8 9 9 9 9 9 9 9 9 9 9 9 9
2 3 3 3 4 4 5 4 4 5 6 6 7 8 8 7 7 7 6 7 8 8 8 8 8 8 8 8 7 7 7 8 7 7 7 8 8 8 9 9 9 9 9 9 10 10 10 10 10 9 9 9
3 3 4 4 4 4 6 5 5 5 5 5 6 6 6 6 5 5 6 6 6 7 6 7 8 8 8 8 8 8 7 8 7 7 7 8 9 9 8 9 9 8 9 9 9 10 10 10 10 10 10 9
2 3 3 3 4 4 5 4 4 4 3 4 4 4 5 6 5 5 5 6 6 5 6 6 6 6 7 7 8 9 8 8 9 8 8 8 8 8 8 8 9 9 9 8 9 9 10 10 10 10 10 10
2 2 3 2 3 3 4 3 3 3 3 4 4 4 5 5 5 5 5 5 5 6 7 6 6 6 6 7 7 8 9 8 8 9 9 9 9 9 9 9 9 9 9 9 9 9 10 10 10 10 10 11
2 1 2 2 2 2 2 2 2 3 3 4 3 4 4 4 5 4 5 5 6 6 6 6 7 7 7 7 7 7 8 9 9 9 9 9 9 9 9 9 9 9 9 10 9 9 10 10 10 10 10 10
2 2 1 1 1 2 1 2 2 2 2 3 2 3 3 4 5 5 5 5 6 6 6 6 7 6 7 7 7 8 8 8 8 8 9 10 10 10 9 9 9 8 9 10 9 10 11 10 10 10 10 11
2 1 1 1 1 1 1 1 1 1 2 2 2 3 3 3 4 4 4 4 5 6 5 5 6 6 6 6 7 8 9 10 8 8 8 9 9 9 9 10 10 9 9 10 10 10 10 10 11 11 11 11
2 1 1 1 1 0 0 0 1 2 2 2 3 3 4 3 4 4 3 3 3 4 4 5 5 5 6 6 7 7 7 7 7 8 8 9 8 8 9 9 9 10 10 9 10 10 10 10 11 11 11 11
2 1 1 0 1 0 0 1 1 2 2 2 2 3 4 4 4 4 4 3 3 3 3 4 5 5 5 6 7 7 7 7 7 7 8 8 9 9 8 8 9 10 10 11 11 11 10 11 11 11 12 12
2 1 0 1 1 1 0 1 2 2 2 2 3 3 4 4 4 5 4 4 3 3 3 4 4 5 6 7 6 6 6 7 7 7 7 7 8 9 9 10 10 9 10 11 12 11 11 11 11 12 12 13
2 1 2 2 1 1 1 2 2 2 3 3 3 3 3 4 4 5 5 4 4 3 3 4 4 5 6 6 7 7 7 6 6 7 7 7 7 7 9 10 12 11 10 11 11 11 12 12 12 12 12 12
2 2 2 1 2 2 2 3 3 3 3 3 3 3 4 4 5 5 5 5 4 3 3 3 4 5 5 6 6 6 6 6 6 6 7 8 7 7 8 9 10 12 11 11 12 12 12 13 12 12 13 13
2 1 1 1 2 3 3 2 3 3 3 4 3 4 4 4 5 5 5 5 5 4 3 3 4 4 5 5 5 5 6 6 6 6 7 8 9 7 7 9 10 11 12 12 12 13 14 13 14 13 13 13
2 1 2 3 2 2 3 3 3 3 4 4 4 4 4 4 5 5 5 6 5 5 4 4 4 5 5 5 5 6 6 6 6 8 9 8 9 10 8 7 8 10 12 12 14 15 15 14 14 15 14 15
3 3 2 2 2 3 3 3 3 4 4 4 4 4 4 5 5 5 6 6 6 5 4 4 5 5 5 5 6 6 7 7 8 7 8 8 7 9 10 8 6 8 10 13 13 10 13 14 12 15 16 16
4 4 3 3 3 3 2 3 3 4 3 4 3 4 4 4 5 6 6 6 6 5 5 5 5 5 6 6 7 7 7 8 8 8 7 8 9 5 8 9 6 7 9 7 8 15 17 14 12 14 16 15
4 4 3 3 3 2 3 3 4 4 4 4 4 4 4 4 5 6 6 6 6 5 4 5 5 5 5 6 6 7 8 7 8 7 8 8 8 10 7 8 7 6 4 8 10 11 13 14 16 10 7 10
6 5 4 3 2 2 2 4 4 5 4 5 5 5 4 4 5 6 7 7 6 5 5 5 6 6 6 6 6 7 8 8 8 7 7 7 8 8 12 7 8 5 5 6 8 8 3 11 10 17 5 4
5 3 2 1 1 1 3 2 3 4 4 4 5 6 6 6 5 7 7 7 6 6 6 5 6 7 7 7 7 7 8 8 8 8 8 8 8 8 9 13 8 8 6 7 7 8 9 7 5 9 14 16
5 5 5 3 2 3 2 4 3 4 5 4 5 7 6 7 6 7 7 7 6 5 6 6 6 7 8 8 8 7 8 9 9 9 9 8 9 10 10 11 13 11 6 8 9 11 12 10 12 13 13 12
5 5 4 6 5 4 4 5 5 3 4 5 6 6 7 7 6 6 7 6 5 5 5 6 6 7 7 8 8 8 8 9 10 9 9 8 9 10 10 10 13 14 10 8 10 11 14 16 17 16 14 13
Wind_Direction
52 52 51 51 50 50 49 48 46 43 40 40 39 38 37 34 31 28 27 25 23 23 19 16 12 8 7 7 7 4 3 2 1 360 358 357 356 354 351 349 349 347 344 338 335 334 329 320 312 301 283 272
54 52 52 51 50 49 48 47 47 45 43 41 39 37 36 34 32 30 27 25 21 20 18 14 11 6 5 5 4 2 360 359 357 356 355 355 354 354 353 351 350 345 341 338 339 336 331 326 315 304 293 274
46 52 50 50 49 49 48 47 45 43 42 40 40 38 36 32 28 27 26 25 22 19 16 12 9 3 3 3 2 359 357 356 354 353 352 352 352 353 353 354 351 346 341 339 337 333 332 328 321 307 295 283
41 54 50 50 49 47 48 45 44 42 38 32 31 32 32 29 27 21 19 16 20 16 15 10 8 3 2 1 359 357 355 353 352 350 349 350 350 351 351 352 349 346 342 339 336 335 332 327 316 302 292 284
46 59 55 46 48 46 44 44 38 35 30 27 18 21 21 19 27 24 20 16 18 11 12 5 6 2 1 359 358 355 353 351 349 348 347 347 348 349 349 348 343 340 342 339 335 333 329 317 311 312 301 289
63 52 55 50 41 44 38 36 32 27 29 22 19 16 16 22 24 20 17 17 14 14 9 4 4 360 358 358 357 353 352 348 347 345 346 346 345 346 346 344 342 339 338 336 336 329 320 318 321 315 307 295
59 63 63 53 52 46 42 36 32 27 25 24 17 13 17 27 26 22 22 22 15 10 4 5 2 0 359 356 355 351 351 349 346 344 344 343 342 342 341 341 339 337 335 332 331 330 328 325 319 315 309 301
52 54 57 54 47 48 44 39 35 31 29 28 23 15 23 25 23 19 25 19 17 11 10 4 0 358 354 354 353 349 348 345 345 343 340 338 339 338 339 339 335 333 331 329 327 326 325 319 316 313 309 303
43 45 52 49 41 39 36 28 27 26 25 26 23 20 22 21 21 19 22 20 15 11 6 360 358 357 357 352 349 349 347 346 341 342 339 337 338 336 335 333 331 329 328 326 325 323 320 316 313 309 306 305
63 61 60 52 45 42 39 30 24 25 22 21 20 18 14 14 16 15 14 13 10 6 2 359 357 356 351 350 348 349 345 343 340 339 337 336 333 332 329 325 323 322 321 320 320 318 316 313 312 309 304 301
59 58 68 64 53 45 41 33 31 29 27 24 20 17 14 14 13 14 12 9 5 4 359 357 356 353 351 350 349 349 343 339 336 334 334 331 330 326 322 321 318 316 315 313 314 312 311 311 309 306 304 301
35 34 43 43 40 34 35 27 28 28 27 19 21 20 15 12 10 10 9 8 7 2 1 359 351 348 350 349 347 344 343 339 337 334 331 328 324 323 321 317 316 313 312 311 309 308 308 309 307 305 302 301
37 28 41 46 43 36 33 31 28 28 28 28 21 17 9 8 6 8 10 4 2 354 1 356 353 349 348 346 344 343 343 344 337 334 331 328 326 324 320 317 312 311 307 306 307 305 305 305 304 304 303 301
59 27 57 48 55 40 35 32 25 24 26 24 17 12 9 2 359 5 4 2 357 357 356 353 349 349 348 344 346 347 341 341 336 332 329 329 327 325 322 318 313 311 305 302 298 300 300 299 299 299 300 301
71 69 57 58 70 50 38 21 20 27 19 14 12 4 353 350 349 357 2 2 357 356 355 351 349 349 345 344 348 346 339 335 335 331 329 328 327 325 322 316 313 312 308 302 298 292 291 293 295 295 295 295
102 79 64 75 78 74 42 29 29 18 16 0 359 349 340 342 345 348 357 358 355 354 350 349 346 343 344 342 339 339 334 329 326 326 322 325 325 321 318 315 314 312 307 303 298 297 291 288 285 288 291 293
151 174 120 127 99 107 86 27 38 2 348 343 331 335 327 325 330 336 344 351 351 346 344 341 338 341 338 335 333 329 325 320 321 324 325 323 324 320 320 317 317 316 309 305 303 300 295 292 287 284 283 284
147 143 184 135 145 151 203 42 352 330 326 328 324 317 309 302 314 319 320 328 340 340 340 335 332 330 330 330 326 321 322 325 330 328 328 326 324 321 317 313 310 312 309 306 305 303 302 295 293 290 285 282
158 166 230 154 181 230 348 316 317 317 302 301 294 294 291 289 299 302 297 304 327 333 333 327 326 324 326 324 319 319 321 322 324 323 324 327 325 320 316 310 307 305 300 299 297 296 297 296 297 295 290 286
178 215 193 234 244 276 31 281 289 284 278 268 266 267 275 272 278 287 281 290 303 313 324 325 322 324 322 322 322 320 318 321 319 321 316 318 321 320 316 313 305 298 290 287 287 287 288 287 286 286 287 284
207 238 228 234 253 225 279 246 256 264 262 258 254 262 265 265 267 275 271 279 287 301 316 320 320 318 317 318 319 317 319 314 318 318 315 313 314 311 308 309 305 302 296 292 286 284 280 279 280 277 279 277
209 209 237 245 243 259 235 238 243 257 256 252 252 255 253 256 262 275 276 277 283 287 296 304 307 305 305 306 308 309 310 309 308 311 315 313 313 314 309 309 308 304 301 297 295 289 283 281 277 278 276 275
205 263 277 244 272 265 259 248 250 257 255 247 255 252 256 260 265 278 278 279 278 287 299 301 295 296 299 300 301 304 304 307 309 312 314 311 310 308 303 303 304 301 300 296 293 293 290 285 281 278 275 276
219 216 234 249 242 264 252 249 248 254 247 254 251 253 255 255 262 277 281 278 280 283 297 305 306 304 304 306 304 305 308 311 317 315 314 312 313 311 306 298 300 307 308 301 295 290 284 276 278 274 271 273
197 209 218 218 219 228 240 254 254 248 252 247 247 252 256 255 264 277 273 276 280 287 295 298 302 303 306 307 306 304 303 305 303 304 306 308 306 309 311 309 308 310 312 308 301 283 281 287 274 274 273 269
185 185 189 200 237 239 247 268 263 262 237 242 247 255 258 258 264 267 269 277 282 288 293 302 305 305 302 308 301 293 291 295 297 299 305 313 310 302 305 300 305 307 314 303 316 320 316 299 284 259 253 252
196 198 199 181 223 217 271 232 254 264 266 273 269 254 247 247 255 259 264 268 272 275 276 278 284 287 290 287 294 299 296 296 299 302 307 311 310 311 296 283 285 287 309 300 309 296 294 300 327 305 239 244
199 192 183 183 211 267 246 276 296 289 289 291 294 281 260 268 271 271 277 278 281 281 281 289 293 296 294 294 293 293 296 295 293 300 304 305 302 303 303 294 287 259 265 271 307 310 269 303 310 303 310 4
180 166 170 183 298 297 297 273 275 299 282 268 269 275 276 271 272 277 278 278 274 284 294 297 297 297 297 296 292 292 291 294 293 296 293 293 290 289 290 297 289 280 253 248 238 263 303 302 261 247 291 330
163 181 182 185 212 255 255 274 260 252 268 280 268 260 261 263 253 257 264 269 281 287 296 296 290 288 289 287 286 284 285 289 293 290 290 286 285 283 275 279 292 285 258 245 238 237 244 245 272 299 302 320
164 170 185 195 207 217 234 262 268 243 245 261 265 263 264 270 270 265 274 283 283 284 276 276 275 271 271 273 275 278 280 282 282 284 282 283 276 276 278 276 278 280 282 274 247 236 242 252 258 262 279 278